Вернуться в каталог

DMSP 5D-2 F13 DEB

АктивенSSO
NORAD 40525·DEBRIS·🇺🇸 United States

Запущен Mar 24, 1995 с Vandenberg Space Force Base

Loading…

Ближайшие Пролёты (ближайшие 24 часа)

TLE

СвежийSource: Space-Track

Эпоха: Sep 14, 2026, 21:44 UTC

1 40525U 95015DM  26257.90569072  .00003281  00000-0  10493-2 0  9999
2 40525  98.6720 301.7253 0010154 353.2372   6.8677 14.40282245595068

Отслеживайте DMSP 5D-2 F13 DEB в реальном времени с AllMySat

Download on the App Store